When you browse on this site, cookies collect data to enhance your experience and personalize the content and advertising you see.
Visit our Privacy Policy to learn more. By continuing to use the site, you agree to this use of cookies and data.

Météo par heure à Balakan

Ce jour, 6 Juillet, Lundi

Heure Température Précipitation Vent Pression Humidité
00:00 +24°C° 0 mm 1 m/s 725 mmHg 40%
01:00 +24°C° 0 mm 1 m/s 725 mmHg 41%
02:00 +23°C° 0 mm 1 m/s 725 mmHg 42%
03:00 +23°C° 0 mm 1 m/s 725 mmHg 44%
04:00 +24°C° 0 mm 1 m/s 725 mmHg 43%
05:00 +25°C° 0 mm 1 m/s 725 mmHg 42%
06:00 +26°C° 0 mm 1 m/s 725 mmHg 41%
07:00 +28°C° 0 mm 1 m/s 725 mmHg 36%
08:00 +30°C° 0 mm 1 m/s 726 mmHg 31%
09:00 +33°C° 0 mm 1 m/s 726 mmHg 25%
10:00 +35°C° 0 mm 2 m/s 725 mmHg 24%
11:00 +36°C° 0 mm 3 m/s 725 mmHg 22%
12:00 +37°C° 0 mm 3 m/s 725 mmHg 21%
13:00 +37°C° 0 mm 4 m/s 725 mmHg 20%
14:00 +38°C° 0 mm 4 m/s 724 mmHg 20%
15:00 +38°C° 0 mm 4 m/s 724 mmHg 19%
16:00 +37°C° 0 mm 4 m/s 724 mmHg 21%
17:00 +37°C° 0 mm 4 m/s 724 mmHg 23%
18:00 +36°C° 0 mm 4 m/s 723 mmHg 25%
19:00 +33°C° 0 mm 3 m/s 724 mmHg 29%
20:00 +30°C° 0 mm 2 m/s 724 mmHg 32%
21:00 +28°C° 0 mm 2 m/s 724 mmHg 35%
22:00 +27°C° 0 mm 2 m/s 724 mmHg 37%
23:00 +26°C° 0 mm 2 m/s 724 mmHg 38%

Demain, 7 Juillet, Mardi

Heure Température Précipitation Vent Pression Humidité
00:00 +26°C° 0 mm 2 m/s 724 mmHg 40%
01:00 +25°C° 0 mm 1 m/s 724 mmHg 41%
02:00 +24°C° 0 mm 1 m/s 724 mmHg 42%
03:00 +24°C° 0 mm 1 m/s 724 mmHg 44%
04:00 +25°C° 0 mm 1 m/s 724 mmHg 42%
05:00 +26°C° 0 mm 1 m/s 724 mmHg 41%
06:00 +27°C° 0 mm 1 m/s 724 mmHg 40%
07:00 +29°C° 0 mm 1 m/s 724 mmHg 35%
08:00 +31°C° 0 mm 2 m/s 724 mmHg 30%
09:00 +34°C° 0 mm 2 m/s 724 mmHg 26%
10:00 +36°C° 0 mm 3 m/s 724 mmHg 24%
11:00 +37°C° 0 mm 3 m/s 724 mmHg 22%
12:00 +38°C° 0 mm 4 m/s 723 mmHg 21%
13:00 +38°C° 0 mm 4 m/s 723 mmHg 20%
14:00 +40°C° 0 mm 4 m/s 723 mmHg 19%
15:00 +40°C° 0 mm 4 m/s 723 mmHg 19%
16:00 +38°C° 0 mm 3 m/s 722 mmHg 20%
17:00 +37°C° 0 mm 3 m/s 722 mmHg 22%
18:00 +37°C° 0 mm 3 m/s 722 mmHg 23%
19:00 +34°C° 0 mm 3 m/s 722 mmHg 26%
20:00 +31°C° 0 mm 2 m/s 723 mmHg 30%
21:00 +28°C° 0 mm 2 m/s 723 mmHg 33%
22:00 +27°C° 0 mm 2 m/s 723 mmHg 35%
23:00 +26°C° 0 mm 2 m/s 723 mmHg 38%

Après-demain, 8 Juillet, Mercredi

Heure Température Précipitation Vent Pression Humidité
00:00 +26°C° 0 mm 1 m/s 723 mmHg 40%
01:00 +25°C° 0 mm 1 m/s 723 mmHg 41%
02:00 +24°C° 0 mm 1 m/s 723 mmHg 42%
03:00 +24°C° 0 mm 1 m/s 723 mmHg 43%
04:00 +25°C° 0 mm 1 m/s 723 mmHg 42%
05:00 +26°C° 0 mm 1 m/s 723 mmHg 41%
06:00 +27°C° 0 mm 1 m/s 723 mmHg 39%
07:00 +30°C° 0 mm 1 m/s 723 mmHg 35%
08:00 +32°C° 0 mm 1 m/s 723 mmHg 31%
09:00 +35°C° 0 mm 2 m/s 723 mmHg 27%
10:00 +36°C° 0 mm 2 m/s 723 mmHg 26%
11:00 +37°C° 0 mm 2 m/s 723 mmHg 24%
12:00 +39°C° 0 mm 2 m/s 723 mmHg 23%
13:00 +39°C° 0 mm 2 m/s 722 mmHg 22%
14:00 +40°C° 0 mm 2 m/s 722 mmHg 22%
15:00 +40°C° 0 mm 2 m/s 722 mmHg 21%
16:00 +40°C° 0 mm 3 m/s 722 mmHg 23%
17:00 +39°C° 0 mm 3 m/s 722 mmHg 24%
18:00 +38°C° 0 mm 3 m/s 722 mmHg 26%
19:00 +35°C° 0 mm 3 m/s 723 mmHg 29%
20:00 +32°C° 0 mm 2 m/s 723 mmHg 32%
21:00 +30°C° 0 mm 2 m/s 723 mmHg 35%
22:00 +29°C° 0 mm 2 m/s 724 mmHg 37%
23:00 +28°C° 0 mm 2 m/s 724 mmHg 39%

9 Juillet, Jeudi

Heure Température Précipitation Vent Pression Humidité
00:00 +27°C° 0 mm 1 m/s 724 mmHg 41%
01:00 +27°C° 0 mm 1 m/s 724 mmHg 42%
02:00 +26°C° 0 mm 1 m/s 724 mmHg 43%
03:00 +25°C° 0 mm 1 m/s 724 mmHg 45%
04:00 +26°C° 0.1 mm 1 m/s 724 mmHg 47%
05:00 +27°C° 0.1 mm 1 m/s 725 mmHg 50%
06:00 +27°C° 0.1 mm 1 m/s 725 mmHg 53%
07:00 +29°C° 0.2 mm 1 m/s 725 mmHg 49%
08:00 +30°C° 0.2 mm 2 m/s 725 mmHg 46%
09:00 +31°C° 0.2 mm 2 m/s 726 mmHg 43%
10:00 +34°C° 0.2 mm 2 m/s 726 mmHg 37%
11:00 +36°C° 0.2 mm 3 m/s 726 mmHg 32%
12:00 +38°C° 0.2 mm 3 m/s 726 mmHg 27%
13:00 +38°C° 0 mm 3 m/s 726 mmHg 26%
14:00 +39°C° 0 mm 3 m/s 726 mmHg 25%
15:00 +40°C° 0 mm 3 m/s 725 mmHg 25%
16:00 +39°C° 0 mm 3 m/s 726 mmHg 27%
17:00 +38°C° 0 mm 3 m/s 726 mmHg 30%
18:00 +37°C° 0 mm 4 m/s 726 mmHg 32%
19:00 +34°C° 0.2 mm 3 m/s 726 mmHg 41%
20:00 +30°C° 0.2 mm 2 m/s 727 mmHg 49%
21:00 +28°C° 0.2 mm 2 m/s 727 mmHg 58%
22:00 +27°C° 0.5 mm 2 m/s 727 mmHg 63%
23:00 +26°C° 0.5 mm 2 m/s 727 mmHg 67%

10 Juillet, Vendredi

Heure Température Précipitation Vent Pression Humidité
00:00 +25°C° 0.5 mm 1 m/s 728 mmHg 72%
01:00 +25°C° 0.1 mm 1 m/s 728 mmHg 75%
02:00 +24°C° 0.1 mm 1 m/s 728 mmHg 77%
03:00 +23°C° 0.1 mm 1 m/s 728 mmHg 79%
04:00 +24°C° 0 mm 1 m/s 728 mmHg 77%
05:00 +25°C° 0 mm 1 m/s 728 mmHg 75%
06:00 +24°C° 0 mm 0 m/s 728 mmHg 72%
07:00 +27°C° 0.5 mm 1 m/s 729 mmHg 67%
08:00 +29°C° 0.5 mm 2 m/s 729 mmHg 63%
09:00 +30°C° 0.5 mm 2 m/s 729 mmHg 58%
10:00 +31°C° 0.6 mm 3 m/s 729 mmHg 52%
11:00 +34°C° 0.6 mm 3 m/s 729 mmHg 47%
12:00 +36°C° 0.6 mm 4 m/s 729 mmHg 41%
13:00 +36°C° 0.5 mm 4 m/s 728 mmHg 42%
14:00 +35°C° 0.5 mm 3 m/s 728 mmHg 42%
15:00 +35°C° 0.5 mm 3 m/s 728 mmHg 43%
16:00 +35°C° 0.2 mm 2 m/s 728 mmHg 43%
17:00 +35°C° 0.2 mm 2 m/s 728 mmHg 42%
18:00 +35°C° 0.2 mm 2 m/s 728 mmHg 42%
19:00 +31°C° 0.8 mm 2 m/s 728 mmHg 53%
20:00 +28°C° 0.8 mm 2 m/s 728 mmHg 64%
21:00 +25°C° 0.8 mm 2 m/s 728 mmHg 75%
22:00 +25°C° 1.3 mm 2 m/s 728 mmHg 78%
23:00 +24°C° 1.3 mm 2 m/s 728 mmHg 81%

11 Juillet, Samedi

Heure Température Précipitation Vent Pression Humidité
00:00 +24°C° 1.3 mm 1 m/s 729 mmHg 85%
01:00 +24°C° 0.3 mm 1 m/s 728 mmHg 85%
02:00 +24°C° 0.3 mm 1 m/s 728 mmHg 85%
03:00 +24°C° 0.3 mm 1 m/s 728 mmHg 86%
04:00 +24°C° 0.2 mm 2 m/s 729 mmHg 87%
05:00 +23°C° 0.2 mm 2 m/s 729 mmHg 89%
06:00 +23°C° 0.2 mm 2 m/s 729 mmHg 91%
07:00 +23°C° 0.6 mm 2 m/s 729 mmHg 90%
08:00 +24°C° 0.6 mm 2 m/s 729 mmHg 89%
09:00 +24°C° 0.6 mm 2 m/s 729 mmHg 89%
10:00 +24°C° 1.1 mm 1 m/s 729 mmHg 89%
11:00 +24°C° 1.1 mm 1 m/s 729 mmHg 89%
12:00 +24°C° 1.1 mm 1 m/s 729 mmHg 89%
13:00 +24°C° 0.8 mm 1 m/s 728 mmHg 88%
14:00 +24°C° 0.8 mm 2 m/s 728 mmHg 86%
15:00 +24°C° 0.8 mm 2 m/s 728 mmHg 85%
16:00 +24°C° 0.2 mm 2 m/s 728 mmHg 82%
17:00 +24°C° 0.2 mm 2 m/s 728 mmHg 80%
18:00 +24°C° 0.2 mm 3 m/s 728 mmHg 77%
19:00 +24°C° 0.1 mm 2 m/s 728 mmHg 77%
20:00 +24°C° 0.1 mm 2 m/s 728 mmHg 77%
21:00 +23°C° 0.1 mm 2 m/s 728 mmHg 77%
22:00 +23°C° 0 mm 2 m/s 728 mmHg 77%
23:00 +23°C° 0 mm 1 m/s 728 mmHg 76%
Voir plus